This is the latest recevied weather packets stored in our database for station/object K7FLA. If no packets are shown the sender has not sent any weather packets the latest 10 day(s).
| Time | Temp. | Humidity | Pressure | Rain* | Wind** | Luminosity | Snow |
|---|---|---|---|---|---|---|---|
| 1788013933 | 28.33° C | 47% | 1095.9 hPa | 0 mm | - | 100 W/m² | - |
| 1788013633 | 27.22° C | 49% | 1095.7 hPa | 0 mm | - | 89 W/m² | - |
| 1788013328 | 26.67° C | 50% | 1095.9 hPa | 0 mm | - | 78 W/m² | - |
| 1788013039 | 26.11° C | 49% | 1095.7 hPa | 0 mm | - | 69 W/m² | - |
| 1788012726 | 25° C | 50% | 1095.7 hPa | 0 mm | - | 58 W/m² | - |
| 1788012422 | 25° C | 52% | 1095.5 hPa | 0 mm | - | 51 W/m² | - |
| 1788012122 | 23.89° C | 53% | 1095.5 hPa | 0 mm | - | 43 W/m² | - |
| 1788011816 | 23.33° C | 55% | 1095.6 hPa | 0 mm | - | 35 W/m² | - |
| 1788011515 | 22.78° C | 57% | 1095.5 hPa | 0 mm | - | 27 W/m² | - |
| 1788011210 | 22.78° C | 58% | 1095.6 hPa | 0 mm | - | 19 W/m² | - |
| 1788010909 | 22.78° C | 59% | 1095.5 hPa | 0 mm | - | 16 W/m² | - |
| 1788010609 | 22.22° C | 59% | 1095.7 hPa | 0 mm | - | 12 W/m² | - |
| 1788010308 | 22.22° C | 60% | 1095.5 hPa | 0 mm | - | 9 W/m² | - |
| 1788010003 | 22.22° C | 62% | 1095.6 hPa | 0 mm | - | 6 W/m² | - |
| 1788009702 | 22.78° C | 57% | 1095.7 hPa | 0 mm | - | 4 W/m² | - |
| 1788009401 | 22.78° C | 57% | 1095.7 hPa | 0 mm | - | 2 W/m² | - |
| 1788009096 | 22.78° C | 58% | 1095.6 hPa | 0 mm | - | 1 W/m² | - |
| 1788008792 | 22.78° C | 57% | 1095.7 hPa | 0 mm | - | 0 W/m² | - |
| 1788008491 | 22.78° C | 57% | 1095.6 hPa | 0 mm | - | 0 W/m² | - |
| 1788008189 | 22.78° C | 56% | 1095.4 hPa | 0 mm | - | 0 W/m² | - |
| 1788007887 | 22.78° C | 56% | 1095.6 hPa | 0 mm | - | 0 W/m² | - |
| 1788007586 | 22.78° C | 56% | 1095.6 hPa | 0 mm | - | 0 W/m² | - |
| 1788007286 | 22.78° C | 56% | 1095.3 hPa | 0 mm | - | 0 W/m² | - |
| 1788006981 | 22.78° C | 56% | 1095.6 hPa | 0 mm | - | 0 W/m² | - |
| 1788006681 | 22.78° C | 56% | 1095.4 hPa | 0 mm | - | 0 W/m² | - |
* Rain latest hour (hover to see other rain measurements)
** Current wind speed in m/s (hover to see current wind gust speed)